Regional Weather Roundup
Issued by NWS

Home | Current Version | Previous Version | Text Only | Print | Product List | Glossary On
Versions: 1 2 3 4 5 6 7 8 9 10 11 12 13 14 15 16 17 18 19 20 21 22 23 24 25 26 27 28 29 30 31 32 33 34 35 36 37 38 39 40 41 42 43 44 45 46 47 48 49 50
000
ASUS43 KMKX 021911
RWRWI

WISCONSIN REGIONAL WEATHER ROUNDUP
NATIONAL WEATHER SERVICE MILWAUKEE/SULLIVAN WI
200 PM CDT THU JUL 02 2015

NOTE: "FAIR" INDICATES FEW OR NO CLOUDS BELOW 12,000 FEET WITH NO
SIGNIFICANT WEATHER AND/OR OBSTRUCTIONS TO VISIBILITY.

WIZ001-002-006>008-014>016-023>028-022000-
NORTHWEST WISCONSIN

CITY           SKY/WX    TMP DP  RH WIND       PRES   REMARKS
SUPERIOR ARPT  MOSUNNY   77  62  58 W5        29.99
ASHLAND        SUNNY     76  58  53 SW9       30.00F
HAYWARD        SUNNY     74  51  44 SW7       30.03F
SIREN          SUNNY     76  53  44 CALM      30.02
CUMBERLAND     SUNNY     72  46  40 SE7       30.03
RICE LAKE      SUNNY     73  50  44 CALM      30.04  HAZE
CHETEK         SUNNY     74  54  50 S5        30.03
LADYSMITH      SUNNY     74  51  45 CALM      30.05
EAU CLAIRE     SUNNY     75  50  41 E5        30.02S
MENOMONIE      SUNNY     74  53  46 SE7       30.03
NEW RICHMOND   SUNNY     74  50  43 S6        30.02
OSCEOLA        SUNNY     75  50  41 SE8       30.04
$$

WIZ003>005-009-010-017-018-022000-
NORTH CENTRAL WISCONSIN

CITY           SKY/WX    TMP DP  RH WIND       PRES   REMARKS
MANITOWISH WTR SUNNY     73  53  49 SE5       30.03
ARBOR VITAE    SUNNY     72  50  45 CALM      30.04
WOODRUFF       SUNNY     72  50  45 CALM      30.04
RHINELANDER    SUNNY     73  49  42 MISG      30.05F
EAGLE RIVER    SUNNY     72  46  40 W8        30.03
LAND O LAKES   SUNNY     73  47  39 W5        30.04
PHILLIPS       SUNNY     73  53  48 CALM      30.03F
TOMAHAWK       SUNNY     72  50  44 CALM      30.05
MEDFORD        SUNNY     71  53  51 SE6       30.05
MERRILL        SUNNY     72  50  46 S7        30.05
$$

WIZ029-030-035-036-043>047-022000-
CENTRAL WISCONSIN

CITY           SKY/WX    TMP DP  RH WIND       PRES   REMARKS
WAUSAU         SUNNY     74  44  34 SE10      30.03F
MOSINEE        SUNNY     72  48  43 VRB6      30.06S
MARSHFIELD     SUNNY     72  49  44 SE10      30.04F
STEVENS POINT  SUNNY     68  46  44 CALM      30.05
WAUPACA        SUNNY     74  46  36 E6        30.04
WAUTOMA        SUNNY     71  46  40 E7        30.04F
WISC RAPIDS    SUNNY     73  44  35 VRB5      30.05F
CAMP DOUGLAS   MOSUNNY   72  55  55 VRB6      30.02F
$$

WIZ011>013-019>022-031-037>040-048>050-022000-
NORTHEAST WISCONSIN

CITY           SKY/WX    TMP DP  RH WIND       PRES   REMARKS
ANTIGO         SUNNY     70  47  44 CALM      30.06
SHAWANO        SUNNY     74  45  35 E8        30.05
OCONTO         SUNNY     71  48  43 E7        30.05F
STURGEON BAY   SUNNY     66  46  48 E7        30.09S
GREEN BAY      SUNNY     72  50  45 NE8       30.05F
MANITOWOC      SUNNY     67  46  47 MISG      30.05F
APPLETON       SUNNY     70  45  40 E7        30.05F
CLINTONVILLE   SUNNY     72  45  37 NE5       30.04
OSHKOSH        SUNNY     70  48  45 NE8       30.04F
$$

WIZ032>034-041-042-053>061-022000-
SOUTHWEST WISCONSIN

CITY           SKY/WX    TMP DP  RH WIND       PRES   REMARKS
LA CROSSE      SUNNY     74  51  44 VRB6      30.01F
SPARTA         SUNNY     74  47  38 E8        30.03
VIROQUA        SUNNY     71  51  49 NE6       30.03
BOSCOBEL       MOSUNNY   72  52  49 NE8       30.02S
PRAIRIE DU CHI SUNNY     71  52  52 E7        30.01
PLATTEVILLE    PTSUNNY   70  50  49 E9        30.01
$$

WIZ056-057-062-063-064-067-068-022000-
SOUTH CENTRAL WISCONSIN

CITY           SKY/WX    TMP DP  RH WIND       PRES   REMARKS
REEDSBURG      SUNNY     70  50  50 E8        30.02
BARABOO/DELLS  SUNNY     69  49  48 NE7       30.03F
LONE ROCK      MOSUNNY   71  49  45 E9        30.02F
MINERAL POINT  MOSUNNY   70  46  43 NE8       30.02
MADISON        MOSUNNY   69  47  45 E5        30.02F
MIDDLETON      SUNNY     70  46  42 NE9       30.03
WATERTOWN      SUNNY     69  47  45 NE6       30.02
MONROE         MOSUNNY   68  50  52 NE13G18   30.01
JANESVILLE     SUNNY     72  48  43 NE9       30.01F
$$

WIZ051-052-058>065-066-070>072-022000-
SOUTHEAST WISCONSIN

CITY           SKY/WX    TMP DP  RH WIND       PRES   REMARKS
MILWAUKEE      MOSUNNY   64  51  62 NE13      30.04F
WAUKESHA       SUNNY     66  45  45 NE10      30.04F
MILWAUKEE/TIMM SUNNY     64  46  52 NE8       30.05S
RACINE         SUNNY     64  50  60 N9        30.05F
BURLINGTON     SUNNY     67  44  42 E9        30.02
KENOSHA        SUNNY     67  52  58 E9        30.03S
FOND DU LAC    SUNNY     71  47  42 E9        30.03F
SHEBOYGAN      SUNNY     67  49  52 NE7       30.05F
WEST BEND      SUNNY     66  45  45 E6        30.04
JUNEAU         SUNNY     68  48  47 NE7       30.04
$$

LSZ147-162-022000-
LAKE SUPERIOR

STATION/POSITION TIME  TEMP    WIND        PRES    WAVE
                       AIR SEA DIR/SP/G            HT/PER
                 (UTC) (F)     (DEG/KT/KT) (MB)    (FT/S)
W MID LAKE BUOY  1850   46 39  180/  6/  6 1015.8F   0
DEVILS ISLAND    1900   67     240/ 12/ 13 1015.3F
SAXON HARBOR     1840   75      CALM  /  5 1015.6F
$$

LMZ867-665-643>646-022000-
LAKE MICHIGAN

STATION/POSITION TIME  TEMP    WIND        PRES    WAVE
                       AIR SEA DIR/SP/G            HT/PER
                 (UTC) (F)     (DEG/KT/KT) (MB)    (FT/S)
CHAMBERS ISLAND  1800   69      10/  3/  3 1017.9F
N MID LAKE BUOY  1850   53 47   CALM  /  2 1018.4F   0
NORTHPORT PIER   1800   60     100/  4/  5 1017.9F
SISTER BAY       1814   67     360/  9/ 11   N/A
ALGOMA LAKESHORE 1810           90/  7/  8   N/A
KEWAUNEE LAKESHO 1800   61      60/  4/  7 1017.8F
SHEBOYGAN LAKESH 1900   56      20/ 11/ 11 1018.1F
PORT WASHINGTON  1840   60      50/  7/ 11 1018.3F
ATWATER BUOY     1900   57      20/ 14/ 16 1018.5F
MILWAUKEE LAKESH 1800   57      40/ 11/ 12   N/A
KENOSHA   LAKESH 1900   57      30/ 13/ 14 1016.9S
$$

TC  - TEMPERATURE IN CELSIUS
VSB - VISIBILITY IN STATUTE MILES
WCI - WIND CHILL INDEX
HX  - HEAT INDEX




USA.gov is the U.S. government's official web portal to all federal, state and local government web resources and services.